Location: Eurasberg
(48.3353°N, 11.0839°E)
Time: 05:39:05
(UTC+00:00)

Cosmos 1933 Rocket - Pass Details

Date: 18 January 2026
Orbit: 600 x 623 km, 82.5° (Epoch: 10 February)

Event Time Altitude Azimuth Distance (km) Brightness Sun altitude
Rises 05:58:01 0° 176° (S) 2,892 7.3 -10.1°
Reaches altitude 10° 06:00:16 10° 171° (S) 1,991 6.6 -9.7°
Maximum altitude 06:04:34 55° 95° (E) 758 4.4 -9.1°
Drops below altitude 10° 06:08:55 10° 18° (NNE) 2,005 6.2 -8.4°
Sets 06:11:11 0° 14° (NNE) 2,914 6.9 -8.1°
